Vertical_Velocity
-3 -3 -2 -2 1 -4 1 1 -2 2 -3 -5 3 -3 0 -3 2 -2 1 -0 -3 -2 -0 1 4 1 -1 -0 3 3 3 -4 -3 0 8 -10 2 -2 -1 1 1 2 2 5 -3
-0 -2 -1 -5 -2 0 -5 -3 -4 -3 -0 -1 -2 1 -2 -2 -1 -1 -3 2 0 -2 -0 1 2 4 -1 -1 1 3 -1 0 11 2 0 -4 2 -2 -2 -0 -2 2 -1 -1 -2
-2 1 2 -4 0 0 -2 -3 -4 3 -4 0 -1 -1 -0 -1 -5 -8 -3 0 2 1 -2 3 1 0 3 1 -1 2 -10 6 -2 2 1 2 -1 -2 -1 -5 7 0 -1 2 -3
-2 -3 -3 -3 -0 -5 -1 3 -7 -1 -1 -2 0 -2 1 -2 -2 -2 -2 -2 1 1 2 -3 1 2 1 -0 0 -5 1 3 2 -2 -0 1 -1 -1 -4 4 4 0 -1 -5 -1
-8 -3 -5 -1 -6 -4 -3 2 -5 -4 3 -8 8 -6 3 -4 3 -4 -3 1 -1 -1 3 2 2 4 0 1 4 -2 1 -3 3 -2 1 -1 -3 3 -11 3 2 -4 -0 -2 -0
-2 -5 -2 -2 5 -5 -4 -6 -1 -9 3 -7 -1 -2 -0 -0 -4 -4 -1 1 2 -3 1 4 4 -2 -2 -1 0 -1 -1 -2 -1 1 -1 -2 0 2 5 0 2 -2 1 0 -2
-3 -2 -4 -3 -3 -6 -2 -3 -6 -3 -0 0 -3 -0 1 10 3 -2 0 -1 1 4 -2 2 0 3 -3 -2 0 3 -1 0 -4 2 0 -1 -7 -11 7 -3 1 -1 -0 0 1
-4 -4 -3 0 -7 -1 -3 -2 -8 -7 7 -1 3 -1 -6 -7 -0 4 -1 -2 -1 1 1 1 3 0 3 -4 -2 0 0 0 -0 -1 -1 2 -8 4 -2 -1 -0 0 -0 -0 -0
-3 2 -3 -5 -6 -8 1 -6 -9 2 6 -3 -1 3 -6 2 1 -4 -2 6 -1 -0 1 0 2 2 -5 1 1 0 1 3 11 -6 -2 2 -2 4 -1 -1 -2 -3 0 -2 0
-5 0 -2 0 1 -2 -0 1 2 0 1 -1 -0 2 -1 -1 0 1 -0 2 2 -1 -2 -2 2 2 -0 3 -5 5 1 -0 -2 4 -1 1 -11 4 1 -4 -4 -2 1 -3 -2
-1 -5 -3 1 -2 -2 2 -4 -3 -13 -6 9 1 6 3 -2 -1 1 3 2 3 -4 -3 -5 1 -4 1 -3 1 -2 -3 -4 1 14 -4 -4 -3 -7 3 -1 -5 -4 0 -2 5
-3 -2 -3 -2 -2 -1 -0 -0 -2 1 -16 -3 6 -4 -1 2 3 -1 4 1 -0 -2 1 0 -11 4 6 -5 -1 2 0 -4 0 0 -2 -2 -7 -6 -0 -2 2 4 1 -2 2
-3 -1 -2 -3 -3 -0 -0 1 -0 6 -4 -4 -0 -0 10 4 6 3 2 2 -0 0 -1 -2 13 -2 -0 -1 -0 -2 0 2 4 7 -3 -1 -13 -2 -2 -0 2 1 2 1 0
-1 -1 -5 -4 -2 -1 3 8 -2 15 2 -3 -7 -11 -1 6 -1 -0 5 4 -2 0 3 0 11 -2 -0 -1 4 1 1 -0 -0 -1 4 -5 -7 -4 -3 -0 -1 1 -0 0 -1
-1 -3 -0 -0 -5 1 -5 3 3 13 8 17 15 -5 2 6 2 1 0 3 3 -2 -2 15 0 -2 -0 6 -2 6 -3 -1 -1 -0 1 -0 3 6 -0 -1 -1 0 1 -1 -1
-3 -0 -2 2 -3 -1 -1 2 1 27 -8 6 -1 7 -1 6 9 3 3 5 -1 -1 -2 1 -5 -1 3 -3 1 -4 -1 -0 1 2 4 -1 -0 3 -1 0 0 -1 -2 -2 -2
-2 -1 -2 -2 3 -0 7 3 23 6 1 3 1 -2 8 -4 9 10 -1 -2 -3 -3 -4 -1 -2 -4 4 1 -0 -0 -0 2 6 4 -0 -1 4 -9 -1 -2 -1 -2 -2 -2 -1
-2 -3 6 -4 3 4 1 18 0 7 25 -6 -5 -2 -2 21 15 5 4 1 1 -1 1 3 8 1 -2 2 6 -2 1 5 2 3 4 -0 -5 6 -1 -2 0 -1 1 0 -2
-4 2 -3 -1 0 -1 3 4 -3 -1 -2 10 -8 12 -1 6 1 1 1 11 13 1 -0 1 10 -1 -0 0 -1 1 -0 -3 -2 -1 5 -5 1 -4 1 -0 1 -0 0 -2 -0
-9 -1 -0 4 2 1 3 2 3 -4 -5 7 4 13 14 1 3 -0 -0 -2 -3 -1 1 -2 1 -1 -1 1 0 -2 0 -1 -1 2 0 -1 -3 9 -1 1 2 -1 1 -0 -3
-5 -6 -1 0 0 6 -1 3 -7 1 2 11 -14 2 6 -3 -6 5 5 -3 2 1 -1 -2 -0 2 -0 -4 9 -1 -3 -2 -2 -3 3 0 2 -0 1 -2 0 1 -2 -2 -2
-6 -5 -4 -4 9 0 0 -2 -4 4 6 -2 7 -5 9 1 -5 1 0 -1 1 0 -1 -2 -0 -1 8 -2 1 -5 3 -1 4 4 1 -0 -10 -0 2 1 -0 -0 -4 -3 -2
-4 -3 2 -1 -4 11 -1 -1 -2 0 -7 -7 4 6 2 3 -5 4 2 2 1 0 -0 -0 0 2 -0 -0 -0 -2 -1 1 -1 1 -5 5 3 1 -0 1 1 -3 -5 -1 -1
-5 -10 -4 -0 4 9 1 1 2 1 -3 8 2 2 3 1 -1 2 -1 2 -0 0 -1 -0 -1 -2 2 3 -1 -0 -0 1 0 0 -3 -12 -3 6 -2 -6 -2 -5 -3 -1 -1
1 -2 4 -12 -6 -1 2 7 5 2 -1 4 -4 -1 2 1 1 -2 5 1 0 -2 -1 -1 -3 -2 0 -2 1 1 1 -1 -3 -3 5 -2 2 -1 -3 -0 -1 -0 -1 0 -1
0 -2 -3 -5 1 1 1 4 1 -1 2 -1 -0 5 4 4 3 -0 0 0 3 0 -0 -2 3 -1 -11 -1 2 -2 -0 2 2 -3 -5 0 -12 -3 1 -0 -0 1 0 -1 0
3 2 -1 4 -2 -0 21 11 1 2 -2 1 2 6 1 -0 -0 -1 -2 0 -1 -1 -0 -0 -1 0 -0 -2 -2 -2 -0 3 -0 -0 5 1 6 -1 -1 -1 1 -0 -2 1 0
Height
3112 3109 3106 3103 3100 3096 3093 3090 3088 3086 3083 3080 3077 3075 3073 3072 3071 3069 3067 3068 3066 3066 3066 3066 3067 3066 3066 3067 3068 3069 3069 3067 3068 3068 3069 3064 3066 3067 3068 3069 3070 3070 3070 3072 3072
3110 3107 3103 3101 3098 3095 3092 3088 3085 3081 3078 3075 3072 3070 3068 3067 3066 3064 3063 3062 3061 3060 3061 3062 3063 3063 3063 3064 3064 3064 3064 3066 3065 3064 3063 3060 3062 3061 3064 3064 3065 3065 3065 3066 3067
3107 3104 3100 3098 3095 3091 3088 3084 3081 3078 3075 3071 3067 3064 3063 3061 3061 3056 3057 3056 3055 3055 3056 3058 3058 3060 3059 3058 3059 3059 3057 3061 3058 3058 3057 3057 3057 3056 3058 3061 3061 3061 3059 3061 3062
3104 3101 3097 3094 3091 3088 3084 3081 3077 3074 3070 3067 3063 3060 3058 3055 3059 3052 3052 3051 3051 3052 3053 3053 3055 3055 3056 3053 3054 3053 3054 3054 3053 3051 3052 3052 3052 3051 3052 3057 3055 3054 3054 3054 3056
3100 3096 3093 3089 3085 3082 3079 3075 3072 3070 3066 3063 3059 3054 3052 3051 3051 3047 3047 3047 3047 3047 3049 3050 3051 3052 3051 3052 3050 3047 3050 3048 3048 3046 3046 3046 3047 3045 3047 3048 3048 3048 3049 3049 3049
3093 3089 3085 3081 3078 3075 3072 3069 3067 3064 3061 3057 3054 3050 3046 3045 3042 3041 3041 3041 3041 3041 3043 3045 3046 3046 3046 3046 3046 3043 3043 3043 3043 3042 3040 3040 3042 3040 3044 3042 3042 3042 3042 3042 3043
3085 3081 3077 3073 3071 3067 3064 3061 3060 3057 3055 3051 3048 3043 3040 3040 3037 3035 3036 3035 3035 3036 3038 3039 3041 3042 3041 3042 3040 3039 3037 3036 3036 3038 3036 3035 3036 3034 3037 3035 3036 3036 3037 3037 3037
3075 3072 3068 3064 3062 3059 3056 3053 3052 3048 3047 3044 3041 3037 3034 3032 3031 3030 3030 3030 3030 3031 3032 3035 3036 3037 3037 3035 3036 3035 3034 3033 3029 3032 3031 3033 3032 3032 3031 3031 3031 3031 3031 3032 3032
3066 3062 3057 3054 3051 3048 3045 3044 3042 3039 3039 3036 3034 3031 3028 3025 3025 3024 3025 3025 3025 3027 3028 3030 3031 3032 3030 3032 3033 3032 3029 3028 3029 3027 3027 3029 3029 3028 3026 3026 3027 3027 3027 3026 3025
3055 3049 3046 3041 3038 3035 3033 3033 3032 3030 3028 3027 3026 3026 3024 3021 3020 3019 3020 3021 3021 3023 3025 3026 3027 3026 3026 3030 3026 3027 3027 3027 3026 3024 3022 3023 3022 3023 3022 3020 3020 3020 3020 3018 3017
3041 3037 3032 3028 3025 3022 3021 3021 3024 3020 3016 3019 3018 3017 3017 3016 3015 3014 3016 3017 3018 3020 3022 3021 3023 3022 3024 3024 3024 3024 3024 3024 3025 3023 3018 3018 3015 3017 3016 3014 3013 3012 3011 3009 3009
3029 3024 3019 3016 3012 3011 3009 3009 3009 3011 3005 3006 3009 3008 3009 3009 3009 3009 3012 3014 3013 3015 3018 3019 3016 3020 3020 3020 3021 3020 3020 3020 3021 3020 3015 3013 3008 3009 3009 3005 3004 3004 3002 3000 3001
3019 3015 3011 3007 3004 3004 3001 3001 2999 3000 2996 2991 2996 2998 3002 3002 3001 3004 3007 3007 3008 3012 3013 3014 3015 3014 3016 3016 3017 3017 3018 3018 3019 3016 3012 3009 3001 3000 3000 2999 2997 2997 2997 2997 2997
3015 3010 3006 3003 3001 2997 2997 2996 2995 2997 2993 2986 2984 2987 2989 2993 2995 2997 2999 3004 3005 3009 3011 3011 3011 3010 3012 3014 3016 3015 3014 3014 3013 3014 3012 3009 3001 2996 2994 2993 2993 2991 2991 2991 2992
3010 3006 3003 2997 2994 2992 2992 2990 2992 2994 2990 2981 2978 2977 2981 2988 2987 2989 2993 2996 3001 3003 3007 3007 3005 3007 3009 3012 3011 3012 3011 3011 3011 3011 3009 3003 3005 2990 2990 2990 2990 2990 2989 2989 2991
3006 3002 2997 2994 2990 2988 2986 2986 2988 2991 2979 2978 2975 2975 2978 2983 2983 2983 2988 2993 2995 2998 3000 3003 3001 3004 3006 3005 3007 3007 3008 3008 3007 3008 3005 2998 3000 2987 2988 2988 2987 2988 2987 2988 2988
3002 2997 2993 2988 2982 2980 2981 2984 2987 2982 2975 2975 2976 2976 2980 2981 2982 2983 2984 2987 2992 2995 2997 2999 2998 2998 3000 3003 3003 3005 3007 3004 3004 3003 2994 2995 2996 2985 2986 2986 2986 2986 2986 2985 2983
2998 2993 2988 2981 2975 2974 2977 2979 2977 2972 2971 2970 2974 2977 2979 2978 2981 2983 2983 2986 2988 2990 2994 2996 2997 2995 2996 3000 3001 3000 3004 3001 2993 2987 2988 2993 2989 2983 2983 2983 2983 2985 2984 2982 2978
2994 2989 2984 2980 2977 2975 2977 2976 2975 2975 2972 2973 2974 2974 2975 2975 2979 2981 2983 2986 2985 2988 2993 2992 2993 2993 2993 2994 2998 2999 3000 3000 3000 2996 2995 2985 2984 2982 2980 2981 2982 2983 2980 2976 2973
2990 2986 2982 2978 2975 2976 2977 2974 2975 2974 2974 2975 2974 2973 2971 2974 2978 2980 2982 2982 2982 2985 2988 2990 2991 2991 2991 2993 2994 2995 2997 2999 3000 2994 2985 2975 2979 2976 2977 2979 2980 2978 2976 2972 2969
2989 2984 2981 2977 2975 2975 2974 2974 2973 2974 2975 2975 2973 2972 2973 2974 2977 2979 2980 2980 2980 2982 2985 2988 2990 2991 2990 2990 2991 2992 2993 2995 2996 2994 2987 2979 2974 2976 2976 2977 2976 2974 2972 2969 2966
2987 2984 2980 2978 2977 2974 2974 2974 2973 2973 2973 2973 2973 2972 2973 2973 2975 2978 2978 2978 2979 2982 2984 2986 2987 2988 2988 2986 2987 2987 2990 2991 2991 2989 2989 2988 2979 2975 2975 2974 2972 2969 2968 2966 2963
2987 2982 2981 2977 2975 2974 2973 2972 2971 2971 2971 2971 2971 2971 2971 2973 2976 2977 2976 2977 2979 2980 2982 2984 2985 2985 2983 2985 2983 2984 2985 2986 2987 2987 2984 2984 2975 2974 2974 2974 2971 2968 2966 2963 2960
2986 2982 2979 2977 2974 2973 2972 2971 2971 2971 2971 2970 2970 2970 2971 2972 2973 2975 2975 2976 2978 2979 2981 2982 2981 2981 2980 2981 2981 2980 2981 2982 2983 2983 2979 2975 2974 2974 2972 2970 2968 2965 2962 2960 2957
2987 2984 2981 2977 2974 2972 2971 2970 2970 2970 2970 2969 2968 2969 2970 2971 2972 2974 2974 2975 2977 2978 2979 2980 2978 2978 2976 2976 2976 2975 2976 2976 2975 2975 2975 2972 2970 2970 2969 2968 2965 2962 2960 2956 2954
2986 2984 2981 2978 2975 2972 2971 2971 2970 2970 2970 2969 2969 2969 2969 2971 2972 2972 2973 2975 2976 2976 2976 2977 2978 2974 2971 2970 2969 2968 2969 2969 2969 2968 2967 2966 2962 2965 2963 2962 2960 2959 2956 2954 2951
2984 2982 2980 2978 2975 2973 2971 2971 2970 2969 2969 2967 2968 2968 2969 2970 2970 2971 2972 2973 2973 2974 2975 2976 2975 2974 2971 2969 2967 2964 2960 2962 2963 2963 2963 2961 2961 2960 2960 2958 2957 2956 2954 2952 2950